Location: Eastchurch
(51.4000°N, 0.8667°E)
Time: 00:34:18
(UTC+00:00)

COSMOS 2455 - Pass Details

Date: 19 January 2026
Orbit: 899 x 909 km, 67.1° (Epoch: 17 February)

Event Time Altitude Azimuth Distance (km) Brightness Sun altitude
Rises 19:54:02 0° 318° (NW) 3,549 6.6 -32.2°
Reaches altitude 10° 19:56:47 10° 309° (NW) 2,603 5.9 -32.6°
Maximum altitude 20:02:03 33° 248° (WSW) 1,494 4.3 -33.4°
Enters shadow 20:04:27 24° 209° (SSW) 1,778 4.5 -33.8°
